Weather History for KJKA - April, 2014

Change the Weather History Date:

Monday, April 7, 2014

  Actual Average (KPNS) Record (KPNS)
Temperature  
Mean Temperature 68 °F 65 °F  
Max Temperature 73 °F 74 °F 84 °F (1986)
Min Temperature 61 °F 55 °F 37 °F (1971)
Degree Days  
Heating Degree Days 0 3  
Month to date heating degree days 21  
Since 1 July heating degree days 1505  
Cooling Degree Days 2 2  
Month to date cooling degree days 14  
Year to date cooling degree days 61  
Growing Degree Days 18 (Base 50)    
Moisture  
Dew Point 65 °F    
Average Humidity 89    
Maximum Humidity 100    
Minimum Humidity 71    
Precipitation  
Precipitation 0.89 in 0.15 in 4.32 in (1983)
Month to date precipitation 1.09  
Year to date precipitation 16.59  
Snow  
Snow 0.00 in 0.00 in - ()
Month to date snowfall 0.0  
Since 1 July snowfall 0.0  
Snow Depth -    
Sea Level Pressure  
Sea Level Pressure 29.74 in    
Wind  
Wind Speed 11 mph (SW)    
Max Wind Speed 25 mph    
Max Gust Speed 34 mph    
Visibility 7 miles    
Events Rain , Thunderstorm    
T = Trace of Precipitation, MM = Missing Value Source: NWS Daily Summary

Daily Weather History Graph

Daily Weather History Graph

Search for Another Location

Airport or City:

Trip Planner

Search our weather history database for the weather conditions in past years. The results will help you decide how hot, cold, wet, or windy it might be!

Date:

Astronomy

Apr. 07, 2014 Rise Set
Actual Time 6:32 AM CDT 7:13 PM CDT
Civil Twilight 6:08 AM CDT 7:37 PM CDT
Nautical Twilight 5:39 AM CDT 8:06 PM CDT
Astronomical Twilight 5:10 AM CDT 8:35 PM CDT
Moon 12:39 PM CDT (4/7) 1:39 AM CDT (4/7)
Length of Visible Light 13h 29m
Length of Day
12h 40m
First Quarter, 53% of the Moon is Illuminated
Apr 7
First Quarter
Apr 15
Full
Apr 22
Last Quarter
Apr 29
New
May 6
First Quarter

Hourly Weather History & Observations

Time (CDT) Temp. Dew Point Humidity Pressure Visibility Wind Dir Wind Speed Gust Speed Precip Events Conditions
12:15 AM 69.8 °F 69.3 °F 98% 29.77 in 5.0 mi SSE 15.0 mph 23.0 mph N/A   Overcast
12:35 AM 69.6 °F 69.3 °F 99% 29.76 in 4.0 mi SSE 15.0 mph 24.2 mph N/A   Overcast
12:55 AM 69.4 °F 69.1 °F 99% 29.76 in 4.0 mi SE 11.5 mph 19.6 mph N/A   Overcast
1:15 AM 69.4 °F 68.9 °F 98% 29.76 in 4.0 mi SSE 13.8 mph 19.6 mph N/A   Overcast
1:35 AM 69.4 °F 68.9 °F 98% 29.74 in 5.0 mi SE 13.8 mph 23.0 mph N/A   Overcast
1:55 AM 69.8 °F 69.1 °F 98% 29.75 in 4.0 mi SSE 12.7 mph 17.3 mph N/A   Overcast
2:15 AM 69.3 °F 68.9 °F 99% 29.76 in 4.0 mi SSE 9.2 mph 16.1 mph N/A   Overcast
2:35 AM 69.3 °F 68.9 °F 99% 29.74 in 2.5 mi SSE 10.4 mph 18.4 mph N/A   Overcast
2:55 AM 69.3 °F 69.1 °F 99% 29.73 in 1.8 mi SSE 11.5 mph 20.7 mph N/A   Overcast
3:15 AM 69.1 °F 68.9 °F 99% 29.72 in 1.0 mi SSE 12.7 mph 19.6 mph N/A   Overcast
3:35 AM 68.9 °F 68.9 °F 100% 29.71 in 1.2 mi SSE 13.8 mph 20.7 mph N/A   Overcast
3:55 AM 68.9 °F 68.7 °F 99% 29.71 in 1.5 mi SSE 11.5 mph 18.4 mph N/A   Overcast
4:15 AM 68.7 °F 68.5 °F 99% 29.71 in 2.0 mi SSE 9.2 mph 16.1 mph N/A   Overcast
4:35 AM 68.9 °F 68.5 °F 99% 29.69 in 3.0 mi South 9.2 mph - N/A   Overcast
4:55 AM 68.7 °F 68.4 °F 99% 29.68 in 4.0 mi SSE 8.1 mph - N/A   Overcast
5:15 AM 68.9 °F 68.4 °F 98% 29.69 in 4.0 mi South 6.9 mph - N/A Thunderstorm Overcast
5:35 AM 68.9 °F 68.4 °F 98% 29.69 in 5.0 mi South 9.2 mph 16.1 mph N/A   Overcast
5:55 AM 69.4 °F 68.7 °F 98% 29.69 in 5.0 mi South 10.4 mph - N/A   Overcast
6:15 AM 69.3 °F 68.5 °F 98% 29.68 in 5.0 mi South 10.4 mph 17.3 mph N/A Thunderstorm Overcast
6:35 AM 69.3 °F 68.5 °F 98% 29.68 in 5.0 mi South 9.2 mph - N/A Thunderstorm Overcast
7:15 AM 69.1 °F 68.4 °F 98% 29.69 in 5.0 mi South 9.2 mph - N/A Rain , Thunderstorm Rain
7:35 AM 68.9 °F 68.4 °F 98% 29.70 in 5.0 mi South 12.7 mph 20.7 mph N/A Thunderstorm Overcast
7:55 AM 69.4 °F 68.4 °F 96% 29.74 in 5.0 mi West 15.0 mph 20.7 mph N/A Rain , Thunderstorm Light Thunderstorms and Rain
8:15 AM 67.1 °F 65.8 °F 96% 29.74 in 3.0 mi West 25.3 mph 34.5 mph 0.20 in Rain , Thunderstorm Heavy Thunderstorms and Rain
8:35 AM 66.2 °F 65.3 °F 97% 29.75 in 3.0 mi SW 15.0 mph 21.9 mph 0.60 in Rain , Thunderstorm Thunderstorms and Rain
8:55 AM 66.2 °F 65.5 °F 98% 29.74 in 3.0 mi WSW 11.5 mph 17.3 mph 0.71 in Rain , Thunderstorm Heavy Thunderstorms and Rain
9:15 AM 67.1 °F 66.2 °F 97% 29.72 in 4.0 mi South 6.9 mph - 0.01 in Rain Light Rain
9:35 AM 66.7 °F 66.4 °F 99% 29.74 in 3.0 mi SSW 6.9 mph - 0.06 in Rain , Thunderstorm Thunderstorms and Rain
9:55 AM 67.6 °F 67.1 °F 98% 29.72 in 4.0 mi SW 8.1 mph - 0.13 in Rain , Thunderstorm Rain
10:15 AM 67.6 °F 67.1 °F 98% 29.73 in 4.0 mi WSW 10.4 mph - 0.03 in Rain Light Rain
10:55 AM 68.0 °F 67.3 °F 98% 29.72 in 5.0 mi SSW 9.2 mph - 0.05 in   Overcast
11:15 AM 68.2 °F 67.5 °F 98% 29.71 in 4.0 mi South 6.9 mph - N/A   Overcast
11:35 AM 68.7 °F 67.8 °F 97% 29.71 in 4.0 mi WSW 10.4 mph - N/A   Overcast
11:55 AM 69.8 °F 68.2 °F 95% 29.72 in 5.0 mi SW 10.4 mph 16.1 mph N/A   Overcast
12:15 PM 69.6 °F 67.6 °F 93% 29.72 in 7.0 mi WSW 15.0 mph 18.4 mph N/A   Overcast
12:35 PM 71.1 °F 67.8 °F 89% 29.72 in 10.0 mi West 13.8 mph 17.3 mph N/A   Mostly Cloudy
12:55 PM 71.2 °F 67.3 °F 87% 29.71 in 10.0 mi West 12.7 mph 20.7 mph N/A   Scattered Clouds
1:15 PM 71.6 °F 66.4 °F 84% 29.72 in 10.0 mi West 10.4 mph - N/A   Scattered Clouds
1:35 PM 73.2 °F 67.5 °F 82% 29.71 in 10.0 mi West 10.4 mph - N/A   Scattered Clouds
1:55 PM 73.0 °F 66.6 °F 80% 29.70 in 10.0 mi West 11.5 mph - N/A   Clear
2:15 PM 73.4 °F 66.6 °F 79% 29.69 in 10.0 mi West 12.7 mph - N/A   Clear
2:35 PM 73.8 °F 67.6 °F 81% 29.71 in 10.0 mi West 12.7 mph - N/A   Scattered Clouds
2:55 PM 73.9 °F 67.8 °F 81% 29.70 in 10.0 mi SW 8.1 mph - N/A   Scattered Clouds
3:15 PM 73.2 °F 66.9 °F 81% 29.70 in 10.0 mi WSW 11.5 mph - N/A   Mostly Cloudy
3:35 PM 72.3 °F 65.7 °F 79% 29.70 in 10.0 mi West 12.7 mph - N/A   Scattered Clouds
3:55 PM 70.7 °F 64.8 °F 81% 29.70 in 10.0 mi West 11.5 mph - N/A   Mostly Cloudy
4:15 PM 69.6 °F 64.4 °F 83% 29.69 in 10.0 mi WSW 8.1 mph - N/A   Mostly Cloudy
4:35 PM 68.9 °F 64.2 °F 85% 29.71 in 10.0 mi WSW 10.4 mph - N/A   Scattered Clouds
4:55 PM 68.9 °F 63.7 °F 83% 29.71 in 10.0 mi WSW 9.2 mph - N/A   Clear
5:15 PM 68.9 °F 63.1 °F 82% 29.71 in 10.0 mi WSW 5.8 mph - N/A   Clear
5:35 PM 68.4 °F 62.6 °F 82% 29.71 in 10.0 mi West 10.4 mph 16.1 mph N/A   Clear
5:55 PM 68.2 °F 63.0 °F 83% 29.71 in 10.0 mi West 9.2 mph - N/A   Clear
6:15 PM 68.0 °F 62.1 °F 81% 29.71 in 10.0 mi West 9.2 mph - N/A   Clear
6:35 PM 67.3 °F 62.8 °F 85% 29.72 in 10.0 mi West 8.1 mph - N/A   Clear
6:55 PM 67.1 °F 63.0 °F 87% 29.74 in 10.0 mi West 8.1 mph - N/A   Clear
7:15 PM 66.7 °F 63.5 °F 89% 29.75 in 10.0 mi West 6.9 mph - N/A   Clear
7:35 PM 66.2 °F 63.5 °F 91% 29.77 in 10.0 mi West 5.8 mph - N/A   Clear
7:55 PM 66.2 °F 63.5 °F 91% 29.76 in 10.0 mi Calm Calm - N/A   Clear
8:15 PM 66.4 °F 62.4 °F 87% 29.78 in 10.0 mi NW 5.8 mph - N/A   Clear
8:35 PM 66.7 °F 58.3 °F 74% 29.79 in 10.0 mi NNW 5.8 mph - N/A   Clear
8:55 PM 66.2 °F 57.2 °F 73% 29.80 in 10.0 mi NNW 8.1 mph - N/A   Clear
9:15 PM 65.3 °F 56.5 °F 73% 29.80 in 10.0 mi NNW 4.6 mph - N/A   Clear
9:35 PM 64.6 °F 55.8 °F 73% 29.81 in 10.0 mi NNW 5.8 mph - N/A   Clear
9:55 PM 64.2 °F 55.2 °F 73% 29.82 in 10.0 mi NNW 5.8 mph - N/A   Clear
10:15 PM 63.7 °F 54.7 °F 72% 29.83 in 10.0 mi NNW 6.9 mph - N/A   Clear
10:35 PM 63.5 °F 53.8 °F 71% 29.82 in 10.0 mi NNW 9.2 mph - N/A   Clear
10:55 PM 63.3 °F 53.6 °F 71% 29.83 in 10.0 mi NNW 8.1 mph - N/A   Clear
11:15 PM 62.6 °F 53.6 °F 72% 29.84 in 10.0 mi NNW 8.1 mph - N/A   Clear
11:35 PM 62.1 °F 53.6 °F 74% 29.84 in 10.0 mi North 9.2 mph - N/A   Clear
11:55 PM 61.0 °F 53.2 °F 76% 29.85 in 10.0 mi NNW 11.5 mph 16.1 mph N/A   Clear